Regional Weather Roundup
Issued by NWS

Home | Current Version | Previous Version | Text Only | Print | Product List | Glossary Off
Versions: 1 2 3 4 5 6 7 8 9 10 11 12 13 14 15 16 17 18 19 20 21 22 23 24 25 26 27 28 29 30 31 32 33 34 35 36 37 38 39 40 41 42 43 44 45 46 47 48 49 50

000
ASUS43 KIND 230309
RWRIN

WEATHER ROUNDUP FOR INDIANA
NATIONAL WEATHER SERVICE INDIANAPOLIS IN
1100 PM EDT FRI SEP 22 2017

NOTE: "FAIR" INDICATES FEW OR NO CLOUDS BELOW 12,000 FEET WITH NO
SIGNIFICANT WEATHER AND/OR OBSTRUCTIONS TO VISIBILITY.

* - STATION DOES NOT REPORT WEATHER SUCH AS PRECIPITATION OR FOG.

+ - STATION NOT QUALITY CONTROLLED BY THE NATIONAL WEATHER SERVICE.
    USE DATA WITH CAUTION...ESPECIALLY DEWPOINT AND RELATIVE
    HUMIDITY OBSERVATIONS.

INZ001>003-010>013-019-020-230400-
NORTHWEST INDIANA

CITY           SKY/WX    TMP DP  RH WIND       PRES   REMARKS
GARY /AIRPORT/ CLEAR     72  68  88 CALM      30.05S
KNOX *+        CLEAR     72  68  88 E3        30.05S
LA PORTE +     CLEAR     72  68  87 CALM      30.07R
MICHIGAN CITY+ CLEAR     70  70 100 CALM      30.05S FOG
MONTICELLO +   CLEAR     74  68  80 CALM      30.05S
RENSSELAER +   CLEAR     72  63  73 CALM      30.06S
VALPARAISO     CLEAR     77  68  73 SE3       30.06S

$$

LMZ046-743>745-230400-
SOUTHERN LAKE MICHIGAN

STATION/POSITION TIME  TEMP    WIND        PRES    WAVE
                       AIR SEA DIR/SP/G            HT
                 (UTC) (F)     (DEG/KT/KT) (MB)    (FT)
BURNS HARBOR     0240   81     150/  4/  7 1017.6F
MICHIGAN CITY    0240   78     130/  4/  5   N/A
5NW MICH CITY    0300   74 72  130/  2/  4   N/A     0

$$

INZ004-005-014>016-021>024-230400-
NORTH CENTRAL INDIANA

CITY           SKY/WX    TMP DP  RH WIND       PRES   REMARKS
GOSHEN         CLEAR     73  67  81 S3        30.07S
LOGANSPORT +   CLEAR     70  63  78 CALM      30.07S
PERU/GRISSOM   CLEAR     73  69  87 CALM      30.06S
SOUTH BEND     CLEAR     73  69  87 CALM      30.06F
WARSAW +       CLEAR     70  70 100 CALM      30.07S

$$

INZ006>009-017-018-025>027-230400-
NORTHEAST INDIANA

CITY           SKY/WX    TMP DP  RH WIND       PRES   REMARKS
AUBURN +       CLEAR     72  64  78 SE3       30.08S
FORT WAYNE     PTCLDY    73  68  84 CALM      30.08R
HUNTINGTON +   CLEAR     73  70  91 CALM      30.07R
KENDALLVILLE + CLEAR     72  67  82 CALM      30.09S

$$

INZ028-029-035-036-043>045-051>053-230400-
WEST CENTRAL INDIANA

CITY           SKY/WX    TMP DP  RH WIND       PRES   REMARKS
CRAWFORDSVL +  PTCLDY    66  66 100 CALM      30.06
GREENCASTLE +  CLEAR     70  64  83 CALM      30.06F
LAFAYETTE      CLEAR     75  69  81 CALM      30.05R
TERRE HAUTE    PTCLDY    73  66  78 S3        30.04S

$$

INZ030>032-037>040-046>048-054>057-064-065-230400-
CENTRAL INDIANA

CITY           SKY/WX    TMP DP  RH WIND       PRES   REMARKS
CP ATTERBURY + CLEAR     70  66  88 CALM      30.07R
FISHERS *+     CLEAR     68  68 100 CALM      30.06S
FRANKFORT +    PTCLDY    71  68  91 CALM      30.08S
GREENWOOD *+   CLEAR     74  71  91 CALM      30.07S
INDIANAPOLIS   PTCLDY    74  65  73 W5        30.06S
-EAGLE CREEK   CLEAR     76  68  76 CALM      30.05S
KOKOMO +       CLEAR     72  68  87 CALM      30.07S
MT COMFORT *+  CLEAR     68  66  94 CALM      30.07S
SHELBYVILLE    CLEAR     70  65  84 E6        30.06S
ZIONSVILLE +   CLEAR     68  67  95 CALM      30.08S

$$

INZ033-034-041-042-049-050-058-059-230400-
EAST CENTRAL INDIANA

CITY           SKY/WX    TMP DP  RH WIND       PRES   REMARKS
MUNCIE         CLEAR     70  67  90 CALM      30.07S
RICHMOND +     CLEAR     68  66  94 E5        30.10R

$$

INZ060-061-067>069-081>083-085>088-230400-
SOUTHWEST INDIANA

CITY           SKY/WX    TMP DP  RH WIND       PRES   REMARKS
EVANSVILLE     CLEAR     73  68  84 CALM      30.03S
HUNTINGBURG +  CLEAR     71  69  93 CALM      30.05R
WASHINGTON +   CLEAR     72  67  87 CALM      30.03S

$$

INZ062-063-066-070>080-084-089>092-230400-
SOUTH CENTRAL AND SOUTHEAST INDIANA

CITY           SKY/WX    TMP DP  RH WIND       PRES   REMARKS
BEDFORD +      CLEAR     73  66  78 CALM      30.05S
BLOOMINGTON    CLEAR     73  66  78 CALM      30.06S
MADISON *+     CLEAR     70  66  88 CALM      30.08S
NORTH VERNON + CLEAR     68  66  94 CALM      30.07S FOG
SEYMOUR +      CLEAR     68  66  94 CALM      30.05S

$$





USA.gov is the U.S. government's official web portal to all federal, state and local government web resources and services.